TimeCST,TemperatureF,Dew PointF,Humidity,Sea Level PressureIn,VisibilityMPH,Wind Direction,Wind SpeedMPH,Gust SpeedMPH,PrecipitationIn,Events,Conditions,WindDirDegrees,DateUTC
12:53 AM,48.0,44.1,86,30.25,10.0,NNE,5.8,-,N/A,,Clear,20,2012-11-16 06:53:00
1:53 AM,48.0,44.1,86,30.23,10.0,NE,3.5,-,N/A,,Clear,50,2012-11-16 07:53:00
2:53 AM,48.0,44.1,86,30.23,10.0,NE,3.5,-,N/A,,Partly Cloudy,50,2012-11-16 08:53:00
3:08 AM,48.2,44.6,87,30.22,10.0,NE,3.5,-,N/A,,Mostly Cloudy,40,2012-11-16 09:08:00
3:53 AM,48.9,44.1,83,30.22,10.0,NNE,3.5,-,N/A,,Overcast,30,2012-11-16 09:53:00
4:12 AM,48.2,44.6,87,30.21,10.0,NE,4.6,-,N/A,,Overcast,40,2012-11-16 10:12:00
4:53 AM,48.9,44.1,83,30.23,10.0,NNE,4.6,-,N/A,,Overcast,20,2012-11-16 10:53:00
5:53 AM,48.9,44.1,83,30.25,10.0,North,6.9,-,N/A,,Overcast,10,2012-11-16 11:53:00
6:53 AM,48.9,44.1,83,30.27,10.0,NE,5.8,-,N/A,,Overcast,40,2012-11-16 12:53:00
7:26 AM,48.2,44.6,87,30.26,10.0,NNE,5.8,-,N/A,,Overcast,20,2012-11-16 13:26:00
7:53 AM,48.9,45.0,86,30.27,10.0,North,6.9,-,N/A,,Overcast,10,2012-11-16 13:53:00
8:53 AM,50.0,45.0,83,30.29,9.0,Variable,6.9,-,N/A,,Overcast,0,2012-11-16 14:53:00
9:53 AM,50.0,45.0,83,30.29,10.0,NNE,5.8,-,N/A,,Overcast,20,2012-11-16 15:53:00
10:53 AM,50.0,45.0,83,30.29,10.0,NNE,5.8,-,N/A,,Overcast,30,2012-11-16 16:53:00
11:53 AM,51.1,45.0,80,30.27,10.0,NNE,9.2,-,N/A,,Overcast,30,2012-11-16 17:53:00
12:53 PM,52.0,46.0,80,30.25,10.0,NNE,5.8,-,N/A,,Overcast,20,2012-11-16 18:53:00
1:53 PM,53.1,46.0,77,30.24,10.0,North,10.4,-,N/A,,Overcast,360,2012-11-16 19:53:00
2:53 PM,54.0,46.0,75,30.24,10.0,NNE,9.2,16.1,N/A,,Overcast,30,2012-11-16 20:53:00
3:40 PM,55.4,46.4,72,30.23,10.0,NNE,9.2,-,N/A,,Overcast,30,2012-11-16 21:40:00
3:53 PM,55.0,46.9,74,30.24,10.0,NNE,6.9,-,N/A,,Overcast,20,2012-11-16 21:53:00
4:36 PM,53.6,46.4,77,30.22,10.0,Calm,Calm,-,N/A,,Scattered Clouds,0,2012-11-16 22:36:00
4:53 PM,53.1,46.0,77,30.23,10.0,Calm,Calm,-,N/A,,Clear,0,2012-11-16 22:53:00
5:53 PM,50.0,46.0,86,30.24,10.0,Calm,Calm,-,N/A,,Clear,0,2012-11-16 23:53:00
6:53 PM,48.9,46.0,90,30.25,10.0,Calm,Calm,-,N/A,,Clear,0,2012-11-17 00:53:00
7:53 PM,46.9,44.1,90,30.26,10.0,NW,5.8,-,N/A,,Clear,320,2012-11-17 01:53:00
8:53 PM,48.0,45.0,89,30.27,10.0,NNW,4.6,-,N/A,,Clear,340,2012-11-17 02:53:00
9:53 PM,46.9,44.1,90,30.28,10.0,North,5.8,-,N/A,,Clear,350,2012-11-17 03:53:00
10:53 PM,48.0,44.1,86,30.28,10.0,North,5.8,-,N/A,,Clear,360,2012-11-17 04:53:00
11:53 PM,48.0,45.0,89,30.27,10.0,North,5.8,-,N/A,,Clear,10,2012-11-17 05:53:00